Cedar City, UT

10:14 PM MDT on July 22, 2017 (GMT -0600)
Cedar City Regional

Weather History for KCDC - August, 2014

Change the Weather History Date:

Wednesday, August 13, 2014

  Actual Average Record
Temperature  
Mean Temperature 69 °F 72 °F  
Max Temperature 77 °F 88 °F 98 °F (1996)
Min Temperature 61 °F 56 °F 47 °F (1950)
Degree Days  
Heating Degree Days 0 0  
Month to date heating degree days 1 0  
Since 1 June heating degree days 28 79  
Since 1 July heating degree days 1 3  
Cooling Degree Days 4 7  
Month to date cooling degree days 66 100  
Year to date cooling degree days 486 453  
Since 1 June cooling degree days 461 445  
Growing Degree Days 20 (Base 50)    
Moisture  
Dew Point 52 °F    
Average Humidity 57    
Maximum Humidity 68    
Minimum Humidity 46    
Precipitation  
Precipitation 0.00 in 0.04 in 0.76 in (1965)
Month to date precipitation 0.29 0.52  
Year to date precipitation 4.16 6.93  
Sea Level Pressure  
Sea Level Pressure 29.96 in    
Wind  
Wind Speed 8 mph (SSW)    
Max Wind Speed 17 mph    
Max Gust Speed 22 mph    
Visibility 10 miles    
Events      
T = Trace of Precipitation, MM = Missing Value Source: NWS Daily Summary

Daily Weather History Graph

Daily Weather History Graph

Search for Another Location

Airport or City:

Trip Planner

Search our weather history database for the weather conditions in past years. The results will help you decide how hot, cold, wet, or windy it might be!

Date:

Astronomy

Aug. 13, 2014 Rise Set
Actual Time 6:46 AM MDT 8:27 PM MDT
Civil Twilight 6:18 AM MDT 8:55 PM MDT
Nautical Twilight 5:44 AM MDT 9:29 PM MDT
Astronomical Twilight 5:08 AM MDT 10:05 PM MDT
Moon 10:20 PM MDT (8/13) 10:14 AM MDT (8/13)
Length of Visible Light 14h 37m
Length of Day
13h 41m
Waning Gibbous, 87% of the Moon is Illuminated
Aug 13
Waning Gibbous
Aug 17
Last Quarter
Aug 25
New
Sep 2
First Quarter
Sep 8
Full

Hourly Weather History & Observations

Time (MDT) Temp. Dew Point Humidity Pressure Visibility Wind Dir Wind Speed Gust Speed Precip Events Conditions
12:53 AM 64.9 °F 46.9 °F 52% 29.99 in 10.0 mi SE 4.6 mph - N/A   Clear
1:53 AM 64.9 °F 46.9 °F 52% 29.99 in 10.0 mi SE 3.5 mph - N/A   Clear
2:53 AM 63.0 °F 46.9 °F 56% 29.99 in 10.0 mi Calm Calm - N/A   Scattered Clouds
3:53 AM 66.0 °F 48.0 °F 52% 29.98 in 10.0 mi Calm Calm - N/A   Overcast
4:53 AM 61.0 °F 48.9 °F 64% 29.98 in 10.0 mi Calm Calm - N/A   Mostly Cloudy
6:53 AM 64.0 °F 51.1 °F 63% 29.99 in 10.0 mi NW 3.5 mph - N/A   Scattered Clouds
7:53 AM 66.9 °F 53.1 °F 61% 29.99 in 10.0 mi SW 3.5 mph - N/A   Mostly Cloudy
9:53 AM 66.0 °F 55.0 °F 68% 30.01 in 10.0 mi SW 12.7 mph - N/A   Overcast
10:53 AM 66.9 °F 55.9 °F 68% 30.01 in 10.0 mi SSW 13.8 mph - N/A   Overcast
11:53 AM 70.0 °F 54.0 °F 57% 30.01 in 10.0 mi SSW 13.8 mph - N/A   Overcast
12:53 PM 70.0 °F 53.1 °F 55% 30.00 in 10.0 mi SW 13.8 mph - N/A   Scattered Clouds
2:53 PM 73.9 °F 52.0 °F 46% 29.95 in 10.0 mi SSW 15.0 mph - N/A   Clear
3:53 PM 73.9 °F 52.0 °F 46% 29.94 in 10.0 mi SSW 15.0 mph 19.6 mph N/A   Clear
4:53 PM 75.0 °F 53.1 °F 46% 29.93 in 10.0 mi SW 12.7 mph 20.7 mph N/A   Clear
5:53 PM 77.0 °F 52.0 °F 42% 29.89 in 10.0 mi SW 13.8 mph 21.9 mph N/A   Clear
6:53 PM 78.1 °F 52.0 °F 40% 29.88 in 10.0 mi SW 15.0 mph 20.7 mph N/A   Clear
7:53 PM 73.9 °F 53.1 °F 48% 29.89 in 10.0 mi SW 12.7 mph - N/A   Clear
8:53 PM 70.0 °F 53.1 °F 55% 29.93 in 10.0 mi SW 8.1 mph - N/A   Mostly Cloudy
10:53 PM 66.0 °F 53.1 °F 63% 29.96 in 10.0 mi SSW 4.6 mph - N/A   Clear
11:53 PM 64.9 °F 54.0 °F 68% 29.96 in 10.0 mi SSW 8.1 mph - N/A   Clear